Flag for Austria Weather past 2 weeks in Graz, Styria, Austria

Now
59 °F

Broken clouds.


Feels Like: 59 °F
Forecast: 49 / 67 °F
Wind: 2 mph from North

Location: Graz-Thalerhof-Flughafen


UV Index: 0 (Low)

Visibility: N/A


Pressure: 30.01 "Hg

Humidity: 77%

Dew point: 52 °F

Location of GrazLocation

Historic Weather in Graz

°F

Graz temperature yesterday

Maximum temperature yesterday: 68 °F (at 1:20 PM)
Minimum temperature yesterday: 46 °F (at 4:20 AM)
Average temperature yesterday: 57 °F

Past Weeks' High & Low Weather Summary

 TemperatureHumidityPressure
High68 °F (Apr 23, 1:20 PM)100% (Apr 11, 6:50 AM)30.24 "Hg (Apr 11, 6:50 AM)
Low32 °F (Apr 10, 5:50 AM)21% (Apr 18, 3:50 PM)29.68 "Hg (Apr 19, 4:50 PM)
Average51 °F67%29.97 "Hg
* Reported Apr 9 7:20 AM — Apr 24 7:50 AM, Graz, Weather by CustomWeather, © 2014

Note: Actual official high and low records may vary slightly from our data, if they occured in-between our weather recording intervals... More about our weather records

Advertising

Historic Weather Conditions — Data for Previous 24 hours

 ConditionsComfort  
Time TempWeatherWind HumidityBarometerVisibility
7:50 AM
Apr 24
54 °FPartly sunny.2 mph94%30.01 "HgN/A
7:20 AM52 °FPartly sunny.1 mph94%30.01 "HgN/A
6:50 AM52 °FPassing clouds.1 mph94%30.01 "HgN/A
6:20 AM50 °FPartly cloudy.2 mph100%30.01 "HgN/A
5:50 AM52 °FPartly cloudy.2 mph94%30.01 "HgN/A
5:20 AM50 °FClear.2 mph100%29.98 "Hg10 mi
4:50 AM50 °FClear.1 mph100%29.98 "Hg10 mi
4:20 AM52 °FClear.1 mph94%29.98 "Hg10 mi
3:50 AM52 °FClear.1 mph94%30.01 "Hg10 mi
3:20 AM52 °FPassing clouds.2 mph94%30.01 "HgN/A
2:50 AM52 °FPassing clouds.2 mph94%30.01 "HgN/A
2:20 AM52 °FPassing clouds.2 mph94%30.01 "HgN/A
1:50 AM52 °FOvercast.1 mph94%30.01 "HgN/A
1:20 AM54 °FOvercast.No wind88%30.01 "HgN/A
12:50 AM54 °FPassing clouds.1 mph88%30.04 "HgN/A
12:20 AM54 °FPassing clouds.1 mph88%30.04 "HgN/A
11:50 PM
Apr 23
54 °FOvercast.2 mph88%30.04 "HgN/A
11:20 PM54 °FPassing clouds.2 mph88%30.04 "HgN/A
10:50 PM54 °FPassing clouds.2 mph88%30.04 "HgN/A
10:20 PM55 °FPartly cloudy.2 mph88%30.04 "HgN/A
9:50 PM55 °FPartly cloudy.2 mph82%30.04 "HgN/A
9:20 PM57 °FPassing clouds.3 mph82%30.04 "HgN/A
8:50 PM57 °FPartly sunny.3 mph77%30.04 "HgN/A
8:20 PM59 °FBroken clouds.3 mph72%30.04 "HgN/A
7:50 PM59 °FBroken clouds.6 mph72%30.04 "HgN/A
7:20 PM59 °FPartly sunny.6 mph72%30.04 "HgN/A
6:50 PM61 °FBroken clouds.3 mph68%30.04 "HgN/A
6:20 PM63 °FBroken clouds.7 mph64%30.04 "HgN/A
5:50 PM64 °FBroken clouds.5 mph60%30.04 "HgN/A
5:20 PM63 °FBroken clouds.3 mph64%30.04 "HgN/A
4:50 PM63 °FPartly sunny.5 mph64%30.04 "HgN/A
4:20 PM63 °FBroken clouds.8 mph68%30.04 "HgN/A
3:50 PM61 °FBroken clouds.9 mph72%30.04 "HgN/A
3:20 PM63 °FThundershowers. Partly sunny.12 mph68%30.07 "HgN/A
2:50 PM64 °FPartly sunny.2 mph60%30.04 "HgN/A
2:20 PM61 °FBroken clouds.5 mph77%30.04 "HgN/A
1:50 PM63 °FSprinkles. Broken clouds.13 mph68%30.07 "HgN/A
1:20 PM68 °FBroken clouds.3 mph49%30.07 "HgN/A
12:50 PM66 °FPartly sunny.5 mph52%30.07 "HgN/A
12:20 PM64 °FPartly sunny.5 mph60%30.07 "HgN/A
11:50 AM64 °FPartly sunny.6 mph60%30.09 "HgN/A
11:20 AM64 °FPartly sunny.6 mph64%30.09 "HgN/A
10:50 AM63 °FPartly sunny.5 mph68%30.09 "HgN/A
10:20 AM63 °FPartly sunny.2 mph64%30.09 "HgN/A
9:50 AM61 °FPartly sunny.3 mph72%30.09 "HgN/A
9:20 AM59 °FPartly sunny.2 mph77%30.07 "HgN/A
Weather by CustomWeather, © 2014

See weather overview